Flag for Germany Weather past 2 weeks in Rendsburg, Schleswig-Holstein, Germany

Now
45 °F

Drizzle. Fog.


Feels Like: 37 °F
Forecast: 43 / 49 °F
Wind: 16 mph from South

Location: Hohn

Current Time: Mar 28, 2015 at 8:07:35 PM

Latest Report: Mar 28, 2015 at 7:20 PM


Visibility: 3 mi

Pressure: 29.74 "Hg

Humidity: 87%

Dew point: 41 °F

Location of RendsburgLocation

Historic Weather in Rendsburg — Graph

°F

Rendsburg temperature yesterday

Maximum temperature yesterday: 46 °F (at 2:20 PM)
Minimum temperature yesterday: 37 °F (at 11:20 PM)
Average temperature yesterday: 42 °F

Past Weeks' High & Low Weather Summary

 TemperatureHumidityPressure
High57 °F (Mar 18, 1:20 PM)100% (Mar 20, 7:20 AM)30.54 "Hg (Mar 20, 7:20 AM)
Low27 °F (Mar 20, 5:20 AM)25% (Mar 19, 2:20 PM)29.65 "Hg (Mar 26, 3:20 AM)
Average41 °F78%30.14 "Hg
* Reported Mar 13 6:20 PM — Mar 28 6:20 PM, Rendsburg, Weather by CustomWeather, © 2015

Note: Actual official high and low records may vary slightly from our data, if they occured in-between our weather recording intervals... More about our weather records

Advertising

Rendsburg weather history for previous 24 hours

 ConditionsComfort  
Time TempWeatherWind HumidityBarometerVisibility
6:20 PM
Sat, Mar 28
46 °FLight rain. Partly sunny.10 mph76%29.77 "Hg4 mi
5:20 PM46 °FLight rain. Partly sunny.14 mph71%29.80 "Hg4 mi
4:20 PM48 °FCool.13 mph54%29.83 "HgN/A
3:20 PM48 °FCool.13 mph58%29.89 "HgN/A
2:20 PM48 °FCool.14 mph54%29.92 "HgN/A
1:20 PM48 °FCool.14 mph54%29.95 "HgN/A
12:20 PM48 °FCool.13 mph58%30.01 "HgN/A
11:20 AM45 °FQuite cool.13 mph66%30.04 "HgN/A
10:20 AM43 °FQuite cool.9 mph81%30.07 "Hg6 mi
9:20 AM41 °FQuite cool.9 mph87%30.07 "HgN/A
8:20 AM43 °FQuite cool.6 mph87%30.09 "HgN/A
7:20 AM41 °FQuite cool.5 mph93%30.09 "Hg5 mi
6:20 AM39 °FChilly.6 mph100%30.09 "Hg3 mi
5:20 AM41 °FQuite cool.3 mph93%30.09 "Hg3 mi
4:20 AM41 °FQuite cool.5 mph93%30.09 "Hg4 mi
3:20 AM41 °FQuite cool.5 mph93%30.09 "Hg4 mi
2:20 AM39 °FChilly.6 mph93%30.09 "Hg5 mi
1:20 AM37 °FChilly.6 mph93%30.09 "Hg5 mi
12:20 AM36 °FChilly.5 mph93%30.09 "Hg6 mi
11:20 PM
Fri, Mar 27
37 °FChilly.7 mph87%30.09 "Hg6 mi
10:20 PM39 °FChilly.8 mph87%30.07 "Hg6 mi
9:20 PM43 °FQuite cool.9 mph87%30.04 "Hg4 mi
8:20 PM45 °FQuite cool.7 mph81%30.04 "Hg3 mi
Weather by CustomWeather, © 2015

See weather overviewHow to use our weather pages